Time,TemperatureF,DewpointF,PressureIn,WindDirection,WindDirectionDegrees,WindSpeedMPH,WindSpeedGustMPH,Humidity,HourlyPrecipIn,Conditions,Clouds,dailyrainin,SoftwareType,DateUTC
2013-01-08 00:04:00,19.0,15.0,-100.00,SSW,195,2.0,4.0,83,0.00,,,-99.99,,2013-01-08 05:04:00,
2013-01-08 00:12:00,19.0,15.0,-100.00,South,175,3.0,5.0,84,0.00,,,-99.99,,2013-01-08 05:12:00,
2013-01-08 00:22:00,19.0,15.0,-100.00,South,175,1.0,5.0,85,0.00,,,-99.99,,2013-01-08 05:22:00,
2013-01-08 00:33:00,18.0,15.0,-100.00,SE,135,0.0,3.0,85,0.00,,,-99.99,,2013-01-08 05:33:00,
2013-01-08 00:43:00,18.0,15.0,-100.00,SSW,195,1.0,1.0,86,0.00,,,-99.99,,2013-01-08 05:43:00,
2013-01-08 00:53:00,18.0,15.0,-100.00,East,80,0.0,1.0,87,0.00,,,-99.99,,2013-01-08 05:53:00,
2013-01-08 01:02:00,18.0,15.0,-100.00,SE,135,0.0,1.0,87,0.00,,,-99.99,,2013-01-08 06:02:00,
2013-01-08 01:12:00,19.0,16.0,-100.00,South,185,3.0,4.0,88,0.00,,,-99.99,,2013-01-08 06:12:00,
2013-01-08 01:22:00,19.0,16.0,-100.00,South,175,1.0,4.0,88,0.00,,,-99.99,,2013-01-08 06:22:00,
2013-01-08 01:33:00,19.0,17.0,-100.00,South,185,2.0,4.0,89,0.00,,,-99.99,,2013-01-08 06:33:00,
2013-01-08 01:42:00,19.0,17.0,-100.00,South,190,2.0,4.0,89,0.00,,,-99.99,,2013-01-08 06:42:00,
2013-01-08 01:52:00,19.0,17.0,-100.00,SSW,195,1.0,3.0,89,0.00,,,-99.99,,2013-01-08 06:52:00,
2013-01-08 02:02:00,19.0,17.0,-100.00,South,180,2.0,4.0,90,0.00,,,-99.99,,2013-01-08 07:02:00,
2013-01-08 02:12:00,19.0,16.0,-100.00,NNE,15,0.0,1.0,90,0.00,,,-99.99,,2013-01-08 07:12:00,
2013-01-08 02:22:00,18.0,16.0,-100.00,SSE,160,0.0,1.0,90,0.00,,,-99.99,,2013-01-08 07:22:00,
2013-01-08 02:32:00,18.0,16.0,-100.00,SSW,195,0.0,1.0,91,0.00,,,-99.99,,2013-01-08 07:32:00,
2013-01-08 02:42:00,18.0,16.0,-100.00,South,190,0.0,1.0,91,0.00,,,-99.99,,2013-01-08 07:42:00,
2013-01-08 02:52:00,18.0,16.0,-100.00,SW,225,0.0,2.0,91,0.00,,,-99.99,,2013-01-08 07:52:00,
2013-01-08 03:02:00,18.0,16.0,-100.00,West,270,0.0,2.0,91,0.00,,,-99.99,,2013-01-08 08:02:00,
2013-01-08 03:12:00,18.0,16.0,-100.00,South,180,1.0,1.0,91,0.00,,,-99.99,,2013-01-08 08:12:00,
2013-01-08 03:22:00,17.0,15.0,-100.00,South,190,1.0,1.0,91,0.00,,,-99.99,,2013-01-08 08:22:00,
2013-01-08 03:32:00,17.0,15.0,-100.00,East,90,0.0,2.0,92,0.00,,,-99.99,,2013-01-08 08:32:00,
2013-01-08 03:42:00,17.0,15.0,-100.00,NE,45,1.0,1.0,92,0.00,,,-99.99,,2013-01-08 08:42:00,
2013-01-08 03:52:00,17.0,15.0,-100.00,NE,45,1.0,1.0,92,0.00,,,-99.99,,2013-01-08 08:52:00,
2013-01-08 04:02:00,17.0,15.0,-100.00,NE,45,1.0,1.0,92,0.00,,,-99.99,,2013-01-08 09:02:00,
2013-01-08 04:12:00,17.0,15.0,-100.00,ENE,60,1.0,1.0,93,0.00,,,-99.99,,2013-01-08 09:12:00,
2013-01-08 04:22:00,17.0,16.0,-100.00,South,190,0.0,1.0,93,0.00,,,-99.99,,2013-01-08 09:22:00,
2013-01-08 04:32:00,18.0,16.0,-100.00,SSW,195,1.0,2.0,93,0.00,,,-99.99,,2013-01-08 09:32:00,
2013-01-08 04:42:00,18.0,16.0,-100.00,SW,225,0.0,1.0,93,0.00,,,-99.99,,2013-01-08 09:42:00,
2013-01-08 04:52:00,17.0,16.0,-100.00,NE,45,0.0,1.0,93,0.00,,,-99.99,,2013-01-08 09:52:00,
2013-01-08 05:02:00,17.0,16.0,-100.00,South,180,1.0,4.0,93,0.00,,,-99.99,,2013-01-08 10:02:00,
2013-01-08 05:12:00,17.0,16.0,-100.00,ESE,105,1.0,2.0,93,0.00,,,-99.99,,2013-01-08 10:12:00,
2013-01-08 05:22:00,18.0,17.0,-100.00,South,185,3.0,4.0,94,0.00,,,-99.99,,2013-01-08 10:22:00,
2013-01-08 05:33:00,18.0,16.0,-100.00,ENE,65,0.0,2.0,93,0.00,,,-99.99,,2013-01-08 10:33:00,
2013-01-08 05:42:00,18.0,16.0,-100.00,South,180,1.0,2.0,93,0.00,,,-99.99,,2013-01-08 10:42:00,
2013-01-08 05:52:00,17.0,16.0,-100.00,SSE,150,0.0,2.0,93,0.00,,,-99.99,,2013-01-08 10:52:00,
2013-01-08 06:02:00,18.0,16.0,-100.00,South,170,1.0,3.0,93,0.00,,,-99.99,,2013-01-08 11:02:00,
2013-01-08 06:12:00,18.0,17.0,-100.00,North,350,0.0,2.0,93,0.00,,,-99.99,,2013-01-08 11:12:00,
2013-01-08 06:23:00,20.0,19.0,-100.00,South,185,1.0,4.0,94,0.00,,,-99.99,,2013-01-08 11:23:00,
2013-01-08 06:33:00,19.0,18.0,-100.00,South,190,1.0,3.0,93,0.00,,,-99.99,,2013-01-08 11:33:00,
2013-01-08 06:42:00,20.0,18.0,-100.00,West,260,1.0,4.0,93,0.00,,,-99.99,,2013-01-08 11:42:00,
2013-01-08 06:53:00,23.0,21.0,-100.00,SSW,210,2.0,4.0,93,0.00,,,-99.99,,2013-01-08 11:53:00,
2013-01-08 07:03:00,23.0,21.0,-100.00,SSW,200,2.0,4.0,90,0.00,,,-99.99,,2013-01-08 12:03:00,
2013-01-08 07:12:00,22.0,19.0,-100.00,South,180,1.0,4.0,87,0.00,,,-99.99,,2013-01-08 12:12:00,
2013-01-08 07:22:00,24.0,21.0,-100.00,SW,215,2.0,4.0,88,0.00,,,-99.99,,2013-01-08 12:22:00,
2013-01-08 07:33:00,24.0,21.0,-100.00,West,270,2.0,4.0,86,0.00,,,-99.99,,2013-01-08 12:33:00,
2013-01-08 07:43:00,25.0,21.0,-100.00,SSW,210,2.0,5.0,85,0.00,,,-99.99,,2013-01-08 12:43:00,
2013-01-08 07:53:00,26.0,22.0,-100.00,SW,220,2.0,4.0,84,0.00,,,-99.99,,2013-01-08 12:53:00,
2013-01-08 08:03:00,27.0,22.0,-100.00,West,275,2.0,6.0,83,0.00,,,-99.99,,2013-01-08 13:03:00,
2013-01-08 08:13:00,28.0,23.0,-100.00,WSW,245,2.0,6.0,82,0.00,,,-99.99,,2013-01-08 13:13:00,
2013-01-08 08:22:00,29.0,24.0,-100.00,West,275,2.0,6.0,80,0.00,,,-99.99,,2013-01-08 13:22:00,
2013-01-08 08:33:00,29.0,24.0,-100.00,West,270,2.0,6.0,80,0.00,,,-99.99,,2013-01-08 13:33:00,
2013-01-08 08:43:00,31.0,25.0,-100.00,West,270,2.0,6.0,76,0.00,,,-99.99,,2013-01-08 13:43:00,
2013-01-08 08:52:00,33.0,25.0,-100.00,West,265,2.0,6.0,71,0.00,,,-99.99,,2013-01-08 13:52:00,
2013-01-08 09:02:00,33.0,24.0,-100.00,West,280,2.0,5.0,69,0.00,,,-99.99,,2013-01-08 14:02:00,
2013-01-08 09:13:00,34.0,24.0,-100.00,WNW,300,2.0,7.0,67,0.00,,,-99.99,,2013-01-08 14:13:00,
2013-01-08 09:23:00,35.0,25.0,-100.00,West,265,4.0,9.0,66,0.00,,,-99.99,,2013-01-08 14:23:00,
2013-01-08 09:33:00,35.0,25.0,-100.00,West,270,3.0,10.0,65,0.00,,,-99.99,,2013-01-08 14:33:00,
2013-01-08 09:43:00,35.0,24.0,-100.00,West,260,4.0,10.0,63,0.00,,,-99.99,,2013-01-08 14:43:00,
2013-01-08 09:53:00,36.0,24.0,-100.00,WSW,255,4.0,11.0,61,0.00,,,-99.99,,2013-01-08 14:53:00,
2013-01-08 10:03:00,37.0,24.0,-100.00,West,265,6.0,10.0,59,0.00,,,-99.99,,2013-01-08 15:03:00,
2013-01-08 10:12:00,38.0,24.0,-100.00,West,260,4.0,11.0,57,0.00,,,-99.99,,2013-01-08 15:12:00,
2013-01-08 10:23:00,38.0,24.0,-100.00,West,280,9.0,16.0,56,0.00,,,-99.99,,2013-01-08 15:23:00,
2013-01-08 10:33:00,39.0,24.0,-100.00,NW,315,4.0,11.0,55,0.00,,,-99.99,,2013-01-08 15:33:00,
2013-01-08 10:43:00,40.0,24.0,-100.00,West,270,4.0,12.0,53,0.00,,,-99.99,,2013-01-08 15:43:00,
2013-01-08 10:53:00,40.0,24.0,-100.00,West,270,5.0,12.0,52,0.00,,,-99.99,,2013-01-08 15:53:00,
2013-01-08 11:03:00,40.0,24.0,-100.00,West,265,5.0,14.0,51,0.00,,,-99.99,,2013-01-08 16:03:00,
2013-01-08 11:13:00,41.0,24.0,-100.00,West,265,7.0,12.0,49,0.00,,,-99.99,,2013-01-08 16:13:00,
2013-01-08 11:23:00,42.0,24.0,-100.00,WNW,295,5.0,10.0,49,0.00,,,-99.99,,2013-01-08 16:23:00,
2013-01-08 11:34:00,42.0,24.0,-100.00,West,265,6.0,17.0,48,0.00,,,-99.99,,2013-01-08 16:34:00,
2013-01-08 11:43:00,42.0,24.0,-100.00,WNW,295,6.0,13.0,46,0.00,,,-99.99,,2013-01-08 16:43:00,
2013-01-08 11:52:00,42.0,24.0,-100.00,West,280,6.0,14.0,46,0.00,,,-99.99,,2013-01-08 16:52:00,
2013-01-08 12:03:00,43.0,23.0,-100.00,NW,305,5.0,12.0,44,0.00,,,-99.99,,2013-01-08 17:03:00,
2013-01-08 12:13:00,44.0,23.0,-100.00,NW,320,3.0,13.0,43,0.00,,,-99.99,,2013-01-08 17:13:00,
2013-01-08 12:23:00,43.0,23.0,-100.00,West,260,6.0,16.0,44,0.00,,,-99.99,,2013-01-08 17:23:00,
2013-01-08 12:34:00,44.0,23.0,-100.00,WNW,285,6.0,12.0,43,0.00,,,-99.99,,2013-01-08 17:34:00,
2013-01-08 12:43:00,43.0,23.0,-100.00,WNW,300,9.0,14.0,43,0.00,,,-99.99,,2013-01-08 17:43:00,
2013-01-08 12:53:00,43.0,23.0,-100.00,WNW,290,9.0,17.0,43,0.00,,,-99.99,,2013-01-08 17:53:00,
2013-01-08 13:04:00,44.0,23.0,-100.00,West,280,6.0,16.0,43,0.00,,,-99.99,,2013-01-08 18:04:00,
2013-01-08 13:13:00,44.0,23.0,-100.00,West,270,5.0,14.0,43,0.00,,,-99.99,,2013-01-08 18:13:00,
2013-01-08 13:23:00,44.0,23.0,-100.00,WNW,290,7.0,14.0,42,0.00,,,-99.99,,2013-01-08 18:23:00,
2013-01-08 13:33:00,44.0,23.0,-100.00,West,275,6.0,17.0,42,0.00,,,-99.99,,2013-01-08 18:33:00,
2013-01-08 13:43:00,44.0,22.0,-100.00,WSW,250,6.0,12.0,41,0.00,,,-99.99,,2013-01-08 18:43:00,
2013-01-08 13:53:00,44.0,23.0,-100.00,WSW,245,6.0,13.0,42,0.00,,,-99.99,,2013-01-08 18:53:00,
2013-01-08 14:03:00,44.0,22.0,-100.00,West,260,4.0,14.0,41,0.00,,,-99.99,,2013-01-08 19:03:00,
2013-01-08 14:12:00,44.0,22.0,-100.00,West,270,6.0,12.0,41,0.00,,,-99.99,,2013-01-08 19:12:00,
2013-01-08 14:23:00,44.0,23.0,-100.00,WSW,245,4.0,12.0,42,0.00,,,-99.99,,2013-01-08 19:23:00,
2013-01-08 14:33:00,44.0,24.0,-100.00,WNW,290,4.0,11.0,43,0.00,,,-99.99,,2013-01-08 19:33:00,
2013-01-08 14:43:00,44.0,24.0,-100.00,West,275,3.0,10.0,44,0.00,,,-99.99,,2013-01-08 19:43:00,
2013-01-08 14:53:00,44.0,24.0,-100.00,South,175,2.0,8.0,44,0.00,,,-99.99,,2013-01-08 19:53:00,
2013-01-08 15:03:00,44.0,23.0,-100.00,WSW,250,5.0,10.0,43,0.00,,,-99.99,,2013-01-08 20:03:00,
2013-01-08 15:12:00,44.0,24.0,-100.00,WSW,245,4.0,9.0,44,0.00,,,-99.99,,2013-01-08 20:12:00,
2013-01-08 15:23:00,44.0,23.0,-100.00,WNW,295,4.0,9.0,44,0.00,,,-99.99,,2013-01-08 20:23:00,
2013-01-08 15:33:00,43.0,24.0,-100.00,SW,225,4.0,9.0,45,0.00,,,-99.99,,2013-01-08 20:33:00,
2013-01-08 15:43:00,43.0,24.0,-100.00,West,275,2.0,9.0,46,0.00,,,-99.99,,2013-01-08 20:43:00,
2013-01-08 15:53:00,43.0,24.0,-100.00,West,275,2.0,7.0,46,0.00,,,-99.99,,2013-01-08 20:53:00,
2013-01-08 16:03:00,43.0,24.0,-100.00,West,265,3.0,6.0,46,0.00,,,-99.99,,2013-01-08 21:03:00,
2013-01-08 16:13:00,43.0,24.0,-100.00,SSW,205,4.0,7.0,46,0.00,,,-99.99,,2013-01-08 21:13:00,
2013-01-08 16:23:00,42.0,24.0,-100.00,South,185,2.0,6.0,47,0.00,,,-99.99,,2013-01-08 21:23:00,
2013-01-08 16:33:00,42.0,24.0,-100.00,South,180,2.0,6.0,48,0.00,,,-99.99,,2013-01-08 21:33:00,
2013-01-08 16:43:00,41.0,24.0,-100.00,SSW,210,2.0,6.0,49,0.00,,,-99.99,,2013-01-08 21:43:00,
2013-01-08 16:53:00,41.0,24.0,-100.00,SW,235,2.0,6.0,50,0.00,,,-99.99,,2013-01-08 21:53:00,
2013-01-08 17:03:00,40.0,24.0,-100.00,WSW,250,2.0,4.0,52,0.00,,,-99.99,,2013-01-08 22:03:00,
2013-01-08 17:12:00,40.0,24.0,-100.00,SSW,195,2.0,6.0,52,0.00,,,-99.99,,2013-01-08 22:12:00,
2013-01-08 17:23:00,39.0,25.0,-100.00,South,190,2.0,6.0,55,0.00,,,-99.99,,2013-01-08 22:23:00,
2013-01-08 17:33:00,40.0,24.0,-100.00,WSW,250,2.0,5.0,53,0.00,,,-99.99,,2013-01-08 22:33:00,
2013-01-08 17:43:00,39.0,24.0,-100.00,WSW,245,1.0,4.0,55,0.00,,,-99.99,,2013-01-08 22:43:00,
2013-01-08 17:52:00,38.0,24.0,-100.00,West,270,1.0,3.0,56,0.00,,,-99.99,,2013-01-08 22:52:00,
2013-01-08 18:03:00,36.0,25.0,-100.00,West,265,1.0,4.0,62,0.00,,,-99.99,,2013-01-08 23:03:00,
2013-01-08 18:13:00,36.0,24.0,-100.00,SW,225,2.0,3.0,61,0.00,,,-99.99,,2013-01-08 23:13:00,
2013-01-08 18:23:00,35.0,24.0,-100.00,South,185,2.0,4.0,64,0.00,,,-99.99,,2013-01-08 23:23:00,
2013-01-08 18:33:00,32.0,24.0,-100.00,East,80,1.0,4.0,69,0.00,,,-99.99,,2013-01-08 23:33:00,
2013-01-08 18:43:00,33.0,24.0,-100.00,SE,135,0.0,2.0,69,0.00,,,-99.99,,2013-01-08 23:43:00,
2013-01-08 18:52:00,33.0,24.0,-100.00,West,265,1.0,4.0,69,0.00,,,-99.99,,2013-01-08 23:52:00,
2013-01-08 19:03:00,33.0,24.0,-100.00,SSW,195,3.0,4.0,69,0.00,,,-99.99,,2013-01-09 00:03:00,
2013-01-08 19:13:00,31.0,23.0,-100.00,ESE,120,0.0,3.0,71,0.00,,,-99.99,,2013-01-09 00:13:00,
2013-01-08 19:22:00,30.0,23.0,-100.00,ENE,70,2.0,4.0,72,0.00,,,-99.99,,2013-01-09 00:22:00,
2013-01-08 19:33:00,30.0,23.0,-100.00,East,100,0.0,2.0,74,0.00,,,-99.99,,2013-01-09 00:33:00,
2013-01-08 19:43:00,31.0,24.0,-100.00,West,280,1.0,6.0,74,0.00,,,-99.99,,2013-01-09 00:43:00,
2013-01-08 19:52:00,30.0,23.0,-100.00,ENE,70,1.0,2.0,74,0.00,,,-99.99,,2013-01-09 00:52:00,
2013-01-08 20:02:00,29.0,22.0,-100.00,NE,45,0.0,1.0,75,0.00,,,-99.99,,2013-01-09 01:02:00,
2013-01-08 20:12:00,30.0,24.0,-100.00,South,190,1.0,3.0,77,0.00,,,-99.99,,2013-01-09 01:12:00,
2013-01-08 20:22:00,29.0,23.0,-100.00,East,100,0.0,1.0,78,0.00,,,-99.99,,2013-01-09 01:22:00,
2013-01-08 20:33:00,29.0,23.0,-100.00,East,100,0.0,2.0,79,0.00,,,-99.99,,2013-01-09 01:33:00,
2013-01-08 20:42:00,28.0,23.0,-100.00,East,100,1.0,3.0,80,0.00,,,-99.99,,2013-01-09 01:42:00,
2013-01-08 20:52:00,29.0,24.0,-100.00,West,260,1.0,4.0,81,0.00,,,-99.99,,2013-01-09 01:52:00,
2013-01-08 21:02:00,28.0,23.0,-100.00,East,80,1.0,3.0,81,0.00,,,-99.99,,2013-01-09 02:02:00,
2013-01-08 21:12:00,29.0,24.0,-100.00,North,10,0.0,4.0,82,0.00,,,-99.99,,2013-01-09 02:12:00,
2013-01-08 21:23:00,28.0,23.0,-100.00,North,350,0.0,1.0,82,0.00,,,-99.99,,2013-01-09 02:23:00,
2013-01-08 21:33:00,28.0,24.0,-100.00,SSW,205,1.0,2.0,83,0.00,,,-99.99,,2013-01-09 02:33:00,
2013-01-08 21:43:00,29.0,24.0,-100.00,NW,315,1.0,2.0,83,0.00,,,-99.99,,2013-01-09 02:43:00,
2013-01-08 21:52:00,28.0,24.0,-100.00,ENE,65,0.0,2.0,83,0.00,,,-99.99,,2013-01-09 02:52:00,
2013-01-08 22:03:00,28.0,24.0,-100.00,SW,225,1.0,4.0,83,0.00,,,-99.99,,2013-01-09 03:03:00,
2013-01-08 22:12:00,28.0,24.0,-100.00,WSW,250,1.0,3.0,83,0.00,,,-99.99,,2013-01-09 03:12:00,
2013-01-08 22:22:00,28.0,24.0,-100.00,East,90,1.0,2.0,84,0.00,,,-99.99,,2013-01-09 03:22:00,
2013-01-08 22:33:00,28.0,24.0,-100.00,South,190,2.0,3.0,85,0.00,,,-99.99,,2013-01-09 03:33:00,
2013-01-08 22:43:00,27.0,24.0,-100.00,NE,45,0.0,3.0,85,0.00,,,-99.99,,2013-01-09 03:43:00,
2013-01-08 22:52:00,28.0,24.0,-100.00,SSW,200,1.0,2.0,85,0.00,,,-99.99,,2013-01-09 03:52:00,
2013-01-08 23:02:00,27.0,24.0,-100.00,East,100,0.0,1.0,85,0.00,,,-99.99,,2013-01-09 04:02:00,
2013-01-08 23:12:00,27.0,24.0,-100.00,South,170,1.0,3.0,85,0.00,,,-99.99,,2013-01-09 04:12:00,
2013-01-08 23:22:00,27.0,24.0,-100.00,ESE,105,0.0,2.0,86,0.00,,,-99.99,,2013-01-09 04:22:00,
2013-01-08 23:33:00,27.0,23.0,-100.00,NE,45,0.0,1.0,86,0.00,,,-99.99,,2013-01-09 04:33:00,
2013-01-08 23:43:00,27.0,23.0,-100.00,West,280,0.0,1.0,86,0.00,,,-99.99,,2013-01-09 04:43:00,
2013-01-08 23:52:00,26.0,23.0,-100.00,WNW,300,0.0,1.0,87,0.00,,,-99.99,,2013-01-09 04:52:00,